Nos coordonnées

Nous sommes à votre écoute du lundi au dimanche de 10:00 à 19:00 au :

+32 (0)495 19 89 53

 

Adresse d'exploitation Adresse de facturation
Chaussée de Nivelles, 629
6230 Buzet
Belgique
Kouter 107/2
9000 Gent
Belgique

contact @ blackhelicopters.be (n'oubliez pas de supprimer les espaces)


Nous retrouver

Il est très fortement conseillé de nous appeler avant de venir sur le terrain, nous pouvons être en mission ou en vol!

 

La carte ci-dessous est interactive, cherchez vos itinéraires, déplacez la pour vous retrouver.

News

Votre panier

Le panier est vide

Météo Charleroi

METAR
EBCI 160620Z 02005KT CAVOK 01/M03 Q1028 NOSIG =
EBCI 160510Z 1606/1712 04007KT 9999 SCT040
TAF
EBCI 160510Z 1606/1712 04007KT 9999 SCT040 =
Lever / Coucher : 04:45 / 18:39 UTC (Buzet 2021-04-16)